Showing default

LAPAN A3, 41603

Orbit data source: Space-Track

LAPAN A3, 41603 is a payload satellite owned by LAPAN (ID) in SSO that was launched on Wed, 22 Jun 2016 UTC via a PSLV-XL launch vehicle from the Sirharikota (SRI). Payload-class satellites include a variety of spacecraft equipped with specific instruments for various scientific and technological missions. These include communications satellites like Starlink; space stations such as the ISS; scientific satellites like the Hubble; Earth observation satellites from companies like Planet Labs, Umbra, and HawkEye 360; GPS; miniature CubeSats for education and research; and military/defense satellites.

Loading next visibility...
Identifier
41603, 2016-040E
Orbit
SSO
Country
Flag of UnknownUnknown / INDO
Related business
Manufacturer
LAPAN
Mission
Operational Civil Imaging
Bus & Motor
TUBSAT, Unknown motor
Mass
120 kg wet, 120 kg dry
Launch date (UTC)
2016-06-22 (9 years ago)
Launch vehicle
PSLV-XL
Launch site
Sirharikota (SRI)
Object type
Payload
Rocket body
Debris
Shape & HBR
Box, 0.3 m
Radar Cross Section
0.120 m², Medium (>0.1 m² and < 1m²)

Expand to show TLE details & history
Last TLE update: 17 hours ago

TLE from 17 hours ago
0 LAPAN A3
1 41603U 16040E   25287.94505708  .00004594  00000-0  15616-3 0  9991
2 41603  97.1433 287.6676 0011197 163.8149 196.3452 15.30878435517261
Epoch: 2025-10-14T22:40Z
TLE epoch observation values (Epoch: 2025-10-14T22:40:52.931Z)
Latitude
-0.0001°
Longitude
-76.27914°
Altitude
483.666 km
Speed
7.619 km/s
True Right ascension
19h 10m 40s
True Declination
0° 00' 00"
Sunlit
Object was in daylight at epoch
Visualization orbit readout
Latitude
Unknown
Longitude
Unknown
Altitude
Unknown
Speed
Unknown
Apparent Right ascension
Unknown
Apparent Declination
Unknown
Sunlit
N/A
Visualization observer readout
Local Sidereal Time
10:28:28
Azimuth
Unknown
Elevation
Unknown
Doppler factor
Unknown
Orbital elements
Apogee altitude
477.798 km
Perigee altitude
462.462 km
Semi-major axis
6,848.267 km
Eccentricity
0.00112
Inclination
97.1433°
RAAN
287.6676°
Arg. of periapsis
163.8149°
True anomaly
196.30914°
Mean anomaly
196.3452°
Eccentric anomaly
196.32716°
Mean motion
3.82976 °/min
Orbital period
94 mins
BSTAR
0.00015616
Loading maneuver chart data...
Computing Atmospheric mass density...
Loading historical data...
Loading historical data...
Loading historical data...
Loading historical data...
Loading historical data...
Loading historical data...
Loading historical data...

Documentation

Showing up to 5 results
|